Weather History for Clermont County, Batavia, OH

Change the Weather History Date:

Sunday, March 23, 2014

  Actual Average (KLUK) Record (KLUK)
Temperature  
Mean Temperature 34 °F -  
Max Temperature 39 °F 56 °F 75 °F (1988)
Min Temperature 30 °F 34 °F 18 °F (1959)
Degree Days  
Heating Degree Days 30    
Moisture  
Dew Point 20 °F    
Average Humidity 56    
Maximum Humidity 81    
Minimum Humidity 33    
Precipitation  
Precipitation 0.00 in - - ()
Sea Level Pressure  
Sea Level Pressure 30.25 in    
Wind  
Wind Speed 6 mph (North)    
Max Wind Speed 15 mph    
Max Gust Speed 22 mph    
Visibility 10 miles    
Events      
Averages and records for this station are not official NWS values.
T = Trace of Precipitation, MM = Missing Value Source: NWS Daily Summary

Daily Weather History Graph

Daily Weather History Graph

Search for Another Location

Airport:

Trip Planner

Search our weather history database for the weather conditions in past years. The results will help you decide how hot, cold, wet, or windy it might be!

Date:

Astronomy

Mar. 23, 2014 Rise Set
Actual Time 7:35 AM EDT 7:51 PM EDT
Civil Twilight 7:08 AM EDT 8:18 PM EDT
Nautical Twilight 6:37 AM EDT 8:49 PM EDT
Astronomical Twilight 6:05 AM EDT 9:21 PM EDT
Moon 2:05 AM EDT (3/23) 12:18 PM EDT (3/23)
Length of Visible Light 13h 09m
Length of Day
12h 16m
Waning Gibbous, 55% of the Moon is Illuminated
Mar 23
Waning Gibbous
Mar 23
Last Quarter
Mar 30
New
Apr 7
First Quarter
Apr 15
Full

Hourly Weather History & Observations

Time (EDT) Temp. Windchill Dew Point Humidity Pressure Visibility Wind Dir Wind Speed Gust Speed Precip Events Conditions
12:14 AM 37.4 °F 33.8 °F 28.4 °F 70% 30.18 in 10.0 mi North 4.6 mph - N/A   Clear
12:34 AM 37.4 °F 34.9 °F 28.4 °F 70% 30.18 in 10.0 mi NNE 3.5 mph - N/A   Clear
12:54 AM 37.4 °F 34.9 °F 28.4 °F 70% 30.18 in 10.0 mi North 3.5 mph - N/A   Clear
1:14 AM 37.4 °F - 28.4 °F 70% 30.18 in 10.0 mi Calm Calm - N/A   Clear
1:34 AM 37.4 °F 34.9 °F 28.4 °F 70% 30.18 in 10.0 mi North 3.5 mph - N/A   Clear
1:54 AM 37.4 °F 33.8 °F 28.4 °F 70% 30.18 in 10.0 mi NNE 4.6 mph - N/A   Clear
2:14 AM 37.4 °F 33.8 °F 30.2 °F 75% 30.17 in 10.0 mi NNE 4.6 mph - N/A   Clear
2:34 AM 37.4 °F - 30.2 °F 75% 30.18 in 10.0 mi Calm Calm - N/A   Clear
2:54 AM 37.4 °F 34.9 °F 28.4 °F 70% 30.19 in 10.0 mi NNW 3.5 mph - N/A   Clear
3:14 AM 37.4 °F 34.9 °F 30.2 °F 75% 30.17 in 10.0 mi North 3.5 mph - N/A   Clear
3:34 AM 37.4 °F - 28.4 °F 70% 30.18 in 10.0 mi Calm Calm - N/A   Clear
3:54 AM 35.6 °F 31.7 °F 28.4 °F 75% 30.18 in 10.0 mi NNW 4.6 mph - N/A   Clear
4:14 AM 35.6 °F 32.8 °F 30.2 °F 81% 30.18 in 10.0 mi North 3.5 mph - N/A   Clear
4:34 AM 35.6 °F 32.8 °F 30.2 °F 81% 30.19 in 10.0 mi NNW 3.5 mph - N/A   Clear
4:54 AM 35.6 °F 32.8 °F 30.2 °F 81% 30.20 in 10.0 mi NNW 3.5 mph - N/A   Mostly Cloudy
5:14 AM 35.6 °F 30.7 °F 30.2 °F 81% 30.19 in 10.0 mi North 5.8 mph - N/A   Overcast
5:35 AM 35.6 °F 29.2 °F 30.2 °F 81% 30.18 in 10.0 mi NNE 8.1 mph - N/A   Overcast
5:54 AM 35.6 °F 31.7 °F 30.2 °F 81% 30.19 in 10.0 mi NNE 4.6 mph - N/A   Overcast
6:14 AM 35.6 °F 29.9 °F 28.4 °F 75% 30.20 in 10.0 mi North 6.9 mph - N/A   Overcast
6:35 AM 35.6 °F 28.6 °F 26.6 °F 70% 30.21 in 10.0 mi NNE 9.2 mph - N/A   Overcast
6:54 AM 35.6 °F 28.6 °F 26.6 °F 70% 30.22 in 10.0 mi North 9.2 mph - N/A   Overcast
7:14 AM 35.6 °F 30.7 °F 26.6 °F 70% 30.22 in 10.0 mi North 5.8 mph - N/A   Overcast
7:35 AM 35.6 °F 28.0 °F 23.0 °F 60% 30.22 in 10.0 mi North 10.4 mph - N/A   Overcast
7:54 AM 33.8 °F 27.7 °F 23.0 °F 65% 30.23 in 10.0 mi North 6.9 mph - N/A   Overcast
8:14 AM 33.8 °F 27.0 °F 24.8 °F 70% 30.24 in 10.0 mi North 8.1 mph - N/A   Overcast
8:35 AM 33.8 °F 25.8 °F 24.8 °F 70% 30.24 in 10.0 mi North 10.4 mph - N/A   Overcast
8:54 AM 33.8 °F 26.4 °F 24.8 °F 70% 30.24 in 10.0 mi NNE 9.2 mph 16.1 mph N/A   Overcast
9:14 AM 33.8 °F 24.8 °F 24.8 °F 70% 30.25 in 10.0 mi NNE 12.7 mph 18.4 mph N/A   Overcast
9:34 AM 33.8 °F 26.4 °F 26.6 °F 75% 30.26 in 10.0 mi North 9.2 mph - N/A   Overcast
9:54 AM 33.8 °F 25.8 °F 24.8 °F 70% 30.26 in 10.0 mi NNE 10.4 mph - N/A   Overcast
10:14 AM 33.8 °F 25.8 °F 23.0 °F 65% 30.27 in 10.0 mi NNE 10.4 mph - N/A   Overcast
10:34 AM 33.8 °F 25.3 °F 21.2 °F 60% 30.28 in 10.0 mi NNE 11.5 mph - N/A   Overcast
10:54 AM 33.8 °F 27.7 °F 19.4 °F 56% 30.28 in 10.0 mi NNE 6.9 mph - N/A   Overcast
11:14 AM 33.8 °F 25.8 °F 17.6 °F 52% 30.28 in 10.0 mi North 10.4 mph - N/A   Overcast
11:34 AM 33.8 °F 26.4 °F 19.4 °F 56% 30.28 in 10.0 mi NE 9.2 mph - N/A   Overcast
11:54 AM 35.6 °F 28.6 °F 19.4 °F 52% 30.28 in 10.0 mi NNE 9.2 mph - N/A   Overcast
12:14 PM 35.6 °F 30.7 °F 19.4 °F 52% 30.28 in 10.0 mi NE 5.8 mph - N/A   Overcast
12:34 PM 35.6 °F 31.7 °F 17.6 °F 48% 30.27 in 10.0 mi North 4.6 mph 9.2 mph N/A   Overcast
12:54 PM 35.6 °F 29.9 °F 17.6 °F 48% 30.27 in 10.0 mi NNW 6.9 mph 16.1 mph N/A   Overcast
1:14 PM 35.6 °F 29.9 °F 15.8 °F 44% 30.27 in 10.0 mi North 6.9 mph 19.6 mph N/A   Overcast
1:34 PM 37.4 °F 30.3 °F 15.8 °F 41% 30.27 in 10.0 mi NNW 10.4 mph 19.6 mph N/A   Overcast
1:54 PM 37.4 °F 29.8 °F 15.8 °F 41% 30.27 in 10.0 mi North 11.5 mph 18.4 mph N/A   Overcast
2:14 PM 39.2 °F 32.0 °F 15.8 °F 39% 30.26 in 10.0 mi NNE 11.5 mph 20.7 mph N/A   Overcast
2:34 PM 37.4 °F 29.3 °F 12.2 °F 36% 30.26 in 10.0 mi North 12.7 mph 17.3 mph N/A   Overcast
2:54 PM 37.4 °F 31.4 °F 12.2 °F 36% 30.26 in 10.0 mi North 8.1 mph 21.9 mph N/A   Overcast
3:14 PM 39.2 °F 32.5 °F 12.2 °F 33% 30.26 in 10.0 mi North 10.4 mph 18.4 mph N/A   Overcast
3:34 PM 37.4 °F 29.8 °F 12.2 °F 36% 30.25 in 10.0 mi North 11.5 mph 16.1 mph N/A   Overcast
3:54 PM 37.4 °F 32.1 °F 12.2 °F 36% 30.25 in 10.0 mi WNW 6.9 mph 18.4 mph N/A   Overcast
4:14 PM 37.4 °F 29.8 °F 12.2 °F 36% 30.25 in 10.0 mi North 11.5 mph 19.6 mph N/A   Mostly Cloudy
4:34 PM 37.4 °F 30.8 °F 12.2 °F 36% 30.25 in 10.0 mi NNW 9.2 mph - N/A   Scattered Clouds
4:54 PM 37.4 °F 31.4 °F 12.2 °F 36% 30.26 in 10.0 mi North 8.1 mph 17.3 mph N/A   Clear
5:14 PM 37.4 °F 31.4 °F 14.0 °F 38% 30.26 in 10.0 mi NNW 8.1 mph 19.6 mph N/A   Clear
5:34 PM 37.4 °F 29.8 °F 14.0 °F 38% 30.26 in 10.0 mi North 11.5 mph 19.6 mph N/A   Scattered Clouds
5:54 PM 37.4 °F 29.8 °F 14.0 °F 38% 30.26 in 10.0 mi North 11.5 mph - N/A   Scattered Clouds
6:14 PM 37.4 °F 32.1 °F 14.0 °F 38% 30.26 in 10.0 mi NE 6.9 mph - N/A   Scattered Clouds
6:34 PM 35.6 °F 29.2 °F 14.0 °F 41% 30.27 in 10.0 mi North 8.1 mph - N/A   Scattered Clouds
6:54 PM 35.6 °F 26.2 °F 14.0 °F 41% 30.27 in 10.0 mi NNE 15.0 mph 19.6 mph N/A   Mostly Cloudy
7:14 PM 35.6 °F 28.6 °F 14.0 °F 41% 30.28 in 10.0 mi North 9.2 mph - N/A   Overcast
7:34 PM 35.6 °F 29.2 °F 14.0 °F 41% 30.28 in 10.0 mi North 8.1 mph - N/A   Overcast
7:54 PM 35.6 °F 29.9 °F 14.0 °F 41% 30.28 in 10.0 mi NNE 6.9 mph - N/A   Overcast
8:15 PM 33.8 °F 27.0 °F 14.0 °F 44% 30.29 in 10.0 mi NNE 8.1 mph - N/A   Overcast
8:34 PM 33.8 °F 28.6 °F 14.0 °F 44% 30.29 in 10.0 mi NNE 5.8 mph - N/A   Overcast
8:54 PM 32.0 °F 26.4 °F 14.0 °F 48% 30.30 in 10.0 mi NNE 5.8 mph - N/A   Overcast
9:15 PM 32.0 °F 27.5 °F 14.0 °F 48% 30.31 in 10.0 mi NNE 4.6 mph - N/A   Mostly Cloudy
9:34 PM 32.0 °F 27.5 °F 14.0 °F 48% 30.31 in 10.0 mi NNE 4.6 mph - N/A   Scattered Clouds
9:54 PM 32.0 °F 28.7 °F 14.0 °F 48% 30.32 in 10.0 mi North 3.5 mph - N/A   Clear
10:15 PM 32.0 °F 27.5 °F 14.0 °F 48% 30.32 in 10.0 mi NNE 4.6 mph - N/A   Clear
10:34 PM 30.2 °F - 15.8 °F 55% 30.32 in 10.0 mi Calm Calm - N/A   Clear
10:54 PM 30.2 °F - 14.0 °F 51% 30.32 in 10.0 mi Calm Calm - N/A   Clear
11:15 PM 30.2 °F - 14.0 °F 51% 30.32 in 10.0 mi Calm Calm - N/A   Clear
11:34 PM 30.2 °F - 14.0 °F 51% 30.32 in 10.0 mi Calm Calm - N/A   Clear
11:54 PM 30.2 °F 26.7 °F 14.0 °F 51% 30.33 in 10.0 mi NE 3.5 mph - N/A   Clear